Regional Weather Roundup
Issued by NWS

Home | Current Version | Previous Version | Text Only | Print | Product List | Glossary Off
Versions: 1 2 3 4 5 6 7 8 9 10 11 12 13 14 15 16 17 18 19 20 21 22 23 24 25 26 27 28 29 30 31 32 33 34 35 36 37 38 39 40 41 42 43 44 45 46 47 48 49 50

000
ASUS43 KMKX 300501
RWRWI

WISCONSIN REGIONAL WEATHER ROUNDUP
NATIONAL WEATHER SERVICE MILWAUKEE/SULLIVAN WI
1200 AM CDT TUE SEP 30 2014

NOTE: "FAIR" INDICATES FEW OR NO CLOUDS BELOW 12,000 FEET WITH NO
SIGNIFICANT WEATHER AND/OR OBSTRUCTIONS TO VISIBILITY.

WIZ001-002-006>008-014>016-023>028-300600-
NORTHWEST WISCONSIN

CITY           SKY/WX    TMP DP  RH WIND       PRES   REMARKS
SUPERIOR ARPT  CLOUDY    45  40  82 E9G18     30.19S
ASHLAND        CLOUDY    44  40  85 NE7       30.20S
HAYWARD        CLOUDY    42  39  89 NE10      30.15F
SIREN          CLOUDY    42  39  88 NE7       30.15S
CUMBERLAND     CLOUDY    41  37  87 E8        30.13S
RICE LAKE      CLOUDY    42  37  82 NE10      30.15S
CHETEK         CLOUDY    42  38  87 NE8       30.14F
LADYSMITH      CLOUDY    41  38  86 NE9       30.16S
EAU CLAIRE     CLOUDY    44  37  76 NE10      30.11S
MENOMONIE      CLEAR     43  38  84 NE9       30.12F
NEW RICHMOND   CLEAR     42  39  92 E7        30.12F
OSCEOLA        PTCLDY    43  41  95 NE7       30.16S
$$

WIZ003>005-009-010-017-018-300600-
NORTH CENTRAL WISCONSIN

CITY           SKY/WX    TMP DP  RH WIND       PRES   REMARKS
MANITOWISH WTR CLOUDY    37  37 100 NE9       30.16S WCI  30
ARBOR VITAE    CLOUDY    39  37  92 NE8       30.15S WCI  34
WOODRUFF       CLOUDY    39  37  92 NE8       30.15S WCI  34
RHINELANDER    CLOUDY    37  35  92 NE8       30.15S WCI  31
EAGLE RIVER    CLOUDY    37  36  99 N7        30.14S WCI  31
LAND O LAKES   CLOUDY    38  37  99 N10       30.15F FOG     WCI  30
PHILLIPS       CLOUDY    38  36  91 NE8       30.15S WCI  32
TOMAHAWK       CLOUDY    38  35  88 N6        30.15S WCI  34
MEDFORD        MOCLDY    39  36  90 NE13      30.12S WCI  31
MERRILL        CLOUDY    40  37  87 NE12      30.13S WCI  33
$$

WIZ029-030-035-036-043>047-300600-
CENTRAL WISCONSIN

CITY           SKY/WX    TMP DP  RH WIND       PRES   REMARKS
WAUSAU         CLOUDY    42  37  82 NE6       30.11F
MOSINEE        CLOUDY    41  37  87 NE13      30.13F
MARSHFIELD     CLOUDY    43  37  79 NE14      30.10S
STEVENS POINT  CLOUDY    42  37  84 NE10      30.12S
WAUPACA        CLOUDY    47  40  78 N8        30.12R
WAUTOMA        NOT AVBL
WISC RAPIDS    CLOUDY    46  39  76 NE13      30.12R
CAMP DOUGLAS   NOT AVBL
$$

WIZ011>013-019>022-031-037>040-048>050-300600-
NORTHEAST WISCONSIN

CITY           SKY/WX    TMP DP  RH WIND       PRES   REMARKS
ANTIGO         CLOUDY    38  37  95 NE10      30.13S WCI  31
SHAWANO        CLOUDY    45  38  77 N13G18    30.13R
OCONTO         CLOUDY    43  39  86 N8G16     30.11S
STURGEON BAY   NOT AVBL
GREEN BAY      CLOUDY    43  39  86 N12       30.11R
MANITOWOC      NOT AVBL
APPLETON       CLOUDY    45  36  70 N16       30.10R
CLINTONVILLE   CLOUDY    43  37  81 N9        30.11S
OSHKOSH        CLOUDY    47  40  76 NE15      30.09R
$$

WIZ032>034-041-042-053>061-300600-
SOUTHWEST WISCONSIN

CITY           SKY/WX    TMP DP  RH WIND       PRES   REMARKS
LA CROSSE      CLEAR     50  44  80 NE8       30.08S
SPARTA         CLEAR     43  42  97 NE6       30.10R
VIROQUA        CLEAR     46  46 100 NE5       30.06F
BOSCOBEL       CLOUDY    55  47  74 E8        30.06S
PRAIRIE DU CHI PTCLDY    53  46  77 NE6       30.05S
PLATTEVILLE    CLOUDY    53  50  90 NE9       30.05R
$$

WIZ056-057-062-063-064-067-068-300600-
SOUTH CENTRAL WISCONSIN

CITY           SKY/WX    TMP DP  RH WIND       PRES   REMARKS
REEDSBURG      CLOUDY    49  45  84 NE6       30.07S
BARABOO/DELLS  CLOUDY    50  46  85 NE5       30.07S
LONE ROCK      NOT AVBL
MINERAL POINT  CLOUDY    52  50  93 NE6       30.05S
MADISON        CLOUDY    50  46  86 N10       30.06S
MIDDLETON      CLOUDY    51  48  90 NE10      30.06S
WATERTOWN      CLOUDY    48  46  93 NE9       30.05S
MONROE         CLOUDY    50  48  93 NE16      30.04R
JANESVILLE     CLOUDY    52  45  76 NE13      30.04R
$$

WIZ051-052-058>065-066-070>072-300600-
SOUTHEAST WISCONSIN

CITY           SKY/WX    TMP DP  RH WIND       PRES   REMARKS
MILWAUKEE      CLOUDY    50  44  80 N17       30.05S
WAUKESHA       CLOUDY    46  43  87 N8        30.06S
MILWAUKEE/TIMM CLOUDY    46  43  87 N10       30.06S
RACINE         CLOUDY    51  45  79 N18G25    30.05S
BURLINGTON     CLOUDY    49  46  91 NE8       30.04S
KENOSHA        CLOUDY    51  46  83 N8        30.04S
FOND DU LAC    CLOUDY    48  41  76 NE17      30.09R
SHEBOYGAN      CLOUDY    45  39  79 N14       30.08R
WEST BEND      CLOUDY    46  41  81 N8        30.05F
JUNEAU         CLOUDY    47  44  88 NE9       30.07S
$$

LSZ147-162-300600-
LAKE SUPERIOR

STATION/POSITION TIME  TEMP    WIND        PRES    WAVE
                       AIR SEA DIR/SP/G            HT/PER
                 (UTC) (F)     (DEG/KT/KT) (MB)    (FT/S)
W MID LAKE BUOY  0350   44 50   30/ 14/ 17 1023.5S   4/ 7
DEVILS ISLAND    0400   45      60/ 19/ 24 1023.4F
SAXON HARBOR     0400   45      80/  7/ 10 1022.4S
$$

LMZ867-665-643>646-300600-
LAKE MICHIGAN

STATION/POSITION TIME  TEMP    WIND        PRES    WAVE
                       AIR SEA DIR/SP/G            HT/PER
                 (UTC) (F)     (DEG/KT/KT) (MB)    (FT/S)
CHAMBERS ISLAND  0400   47     340/ 19/ 25 1019.0F
N MID LAKE BUOY  0350   47 58  350/ 21/ 25 1017.4F   5/ 6
NORTHPORT PIER   0400   47     350/ 22/ 27 1018.6F
KEWAUNEE LAKESHO 0400   45     360/  9/ 13 1017.7F
SHEBOYGAN LAKESH 0400   48 55  360/ 20/ 23 1018.5R
PORT WASHINGTON  0440           30/  9/ 14 1018.3S
ATWATER BUOY     0400   53      10/ 19/ 25 1018.4R
MILWAUKEE LAKESH 0400          360/ 15/ 21   N/A
S MID LAKE BUOY  0450   53 63  350/ 21/ 27 1016.1R   8/ 8
KENOSHA   LAKESH 0400          360/ 19/ 23 1016.6S
$$

TC  - TEMPERATURE IN CELSIUS
VSB - VISIBILITY IN STATUTE MILES
WCI - WIND CHILL INDEX
HX  - HEAT INDEX




USA.gov is the U.S. government's official web portal to all federal, state and local government web resources and services.